Regional Weather Roundup
Issued by NWS Northern Indiana

Home | Current Version | Previous Version | Graphics & Text | Print | Product List | Glossary On
Versions: 1 2 3 4 5 6 7 8 9 10 11 12 13 14 15 16 17 18 19 20 21 22 23 24 25 26 27 28 29 30 31 32 33 34 35 36 37 38 39 40 41 42 43 44 45 46 47 48 49 50
000
ASUS43 KIWX 280210
RWRIWX

KIWX WEATHER ROUNDUP
NATIONAL WEATHER SERVICE NORTHERN INDIANA
900 PM EST TUE JAN 27 2015

NOTE: "FAIR" INDICATES FEW OR NO CLOUDS BELOW 12,000 FEET WITH NO
SIGNIFICANT WEATHER AND/OR OBSTRUCTIONS TO VISIBILITY.

* THESE STATIONS ARE NOT UNDER NWS QUALITY CONTROL. THEY ALSO MAY NOT
  REPORT WEATHER SUCH AS PRECIPITATION OR FOG.

INZ001>027-280300-
NORTHERN INDIANA

CITY           SKY/WX    TMP DP  RH WIND       PRES   REMARKS
GARY*          PTCLDY    28  16  59 NE12      30.26S WCI  18
VALPARAISO     CLEAR     22  14  71 CALM      30.24S
MICHIGAN CITY* CLEAR     19  10  68 CALM      30.25S
LAPORTE*       MOCLDY    18  13  80 CALM      30.25R
KNOX*          CLEAR     21   5  51 CALM      30.24R
SOUTH BEND     CLEAR     19  11  70 N5        30.24S WCI  12
ELKHART*       CLEAR     19   7  58 CALM      30.24S
GOSHEN         CLEAR     20   9  62 NE3       30.23R
MONTICELLO*    CLEAR     23  15  71 N7        30.24R WCI  15
LOGANSPORT*    CLEAR     18  12  79 N3        30.25R
ROCHESTER*     CLEAR     23  14  68 CALM      30.24R
WARSAW*        CLEAR     18  10  73 CALM      30.23S
ANGOLA*        CLEAR     14   9  79 CALM      30.21R
FORT WAYNE     CLEAR     16   9  74 NW3       30.23S
HUNTINGTON*    CLEAR     15   6  68 CALM      30.23S
PERU/GRISSOM   CLEAR     15  11  83 CALM      30.22S
MARION*        CLEAR     18  13  82 CALM      30.24S

$$
INZ028>050-280300-
CENTRAL INDIANA

CITY           SKY/WX    TMP DP  RH WIND       PRES   REMARKS
LAFAYETTE      CLEAR     20  15  81 CALM      30.25R
KOKOMO*        CLEAR     18  10  73 CALM      30.24R
MUNCIE*        CLEAR     15  11  83 CALM      30.23R
INDIANAPOLIS   CLEAR     21  11  65 N6        30.23R WCI  13

$$
MIZ043>046-050>051-056>058-064>065-071>073-077>080-280300-
SOUTHWEST LOWER MICHIGAN

CITY           SKY/WX    TMP DP  RH WIND       PRES   REMARKS
BATTLE CREEK   PTCLDY    19   9  65 CALM      30.22S
BENTON HARBOR  CLEAR     18  13  80 CALM      30.24S
COLDWATER*     CLEAR     17  10  77 CALM      30.21S
HILLSDALE*     CLEAR     17  10  72 CALM      30.19S
HOLLAND        CLEAR     19  12  74 CALM      30.25R
GRAND RAPIDS   CLEAR     21   8  57 CALM      30.23S
KALAMAZOO      CLEAR     17  10  74 CALM      30.23S
STURGIS*       CLEAR     16   9  73 CALM      30.22R
THREE RIVERS*  FAIR      17  10  74 CALM      30.24R

$$
OHZ001>008-015>018-024>025-280300-
NORTHWEST OHIO

CITY           SKY/WX    TMP DP  RH WIND       PRES   REMARKS
WAUSEON*       FAIR      18  10  73 N6        30.22S WCI   9
DEFIANCE       CLEAR     19   9  65 N5        30.23R WCI  12
FINDLAY        PTCLDY    14   8  77 W6        30.19S WCI   5
TOLEDO EXPRESS CLEAR     19  10  68 N6        30.22R WCI  11
TOLEDO METCALF CLEAR     21  11  65 N8        30.22R WCI  11
LIMA           PTCLDY    14  10  84 SW5       30.20R WCI   6

$$
AND FOR LAKE MICHIGAN COASTAL AND OPEN LAKE BUOY OBSERVATIONS

STATION/POSITION TEMP    WIND        PRES    VSBY  WAVE
                 AIR SEA DIR/SP/G                  HT/PER
                 (F)     (DEG/KT/KT) (MB)    (MI)  (FT/S)
CALUMET HARBOR    27     350/  5/  9   N/A
MICHIGAN CITY     27     360/ 10/ 12   N/A
SAINT JOSEPH      23      70/  2/  3 1024.4S

$$
&&



USA.gov is the U.S. government's official web portal to all federal, state and local government web resources and services.